Date String (YYYY-MM-DD hh:mm:ss) UTC,Instrument flags,absolute air pressure of the measurement (hPa),sample flow rate (lpm),inlet stack bypass flow (lpm),air temperature of the measurement (°C),ambient temperature measured by the external sensor (°C),aerosol sample conditioner tube jacket temperature (°C),OPC LED temperature (°C),internal box temperature (°C),relative humidity of the measurement (%),span deviation,mass concentration of particles derived from Lorenz-Mie calculation of OPC scattering (μg/m³),mass concentration of particles derived from Lorenz-Mie calculation of OPC scattering (μg/m³),mass concentration of particles derived from Lorenz-Mie calculation of OPC scattering (μg/m³)
DateTimeUTC,F1_M11,P_M11,Q1_M11,Q2_M11,T1_M11,T2_M11,T3_M11,T4_M11,T5_M11,U1_M11,ZSPAN_M11,X0_M11,X2_M11,X1_M11
2023-08-03 02:00:00,SystemResetWarning,0833.4,4.97,000.00,031.4,027.9,000.0,039.2,031.4,35.0,0000.0,0005.95,0003.24,0002.61
2023-08-03 02:01:00,SystemResetWarning,0833.5,5.04,000.00,031.5,027.8,000.0,039.2,031.5,34.6,0000.0,0006.48,0003.27,0002.63
2023-08-03 02:02:00,SystemResetWarning,0833.5,4.96,000.00,031.7,026.4,000.0,039.1,031.4,34.4,0000.0,0007.00,0003.27,0002.62
2023-08-03 02:03:00,SystemResetWarning,0833.4,5.03,000.00,031.7,025.2,000.0,038.9,031.1,34.3,0000.0,0007.04,0003.26,0002.61
2023-08-03 02:04:00,SystemResetWarning,0833.4,5.00,000.00,031.6,025.0,000.0,038.9,031.0,34.2,0000.0,0007.51,0003.25,0002.60
2023-08-03 02:05:00,SystemResetWarning,0833.4,4.99,000.00,031.4,025.3,000.0,039.0,030.9,34.8,0000.0,0007.51,0003.25,0002.60
2023-08-03 02:06:00,SystemResetWarning,0833.4,4.99,000.00,031.3,025.8,000.0,039.1,031.0,35.1,0000.0,0007.47,0003.23,0002.60
2023-08-03 02:07:00,SystemResetWarning,0833.5,5.03,000.00,031.5,026.3,000.0,039.1,031.1,35.0,0000.0,0007.44,0003.21,0002.59
2023-08-03 02:08:00,SystemResetWarning,0833.6,4.96,000.00,031.6,026.7,000.0,039.1,031.3,35.0,0000.0,0007.66,0003.21,0002.61
2023-08-03 02:09:00,SystemResetWarning,0833.6,5.03,000.00,031.8,027.1,000.0,039.1,031.4,34.5,0000.0,0007.43,0003.19,0002.62
2023-08-03 02:10:00,SystemResetWarning,0833.7,4.97,000.00,031.8,027.5,000.0,039.2,031.5,34.3,0000.0,0007.62,0003.23,0002.63
2023-08-03 02:11:00,SystemResetWarning,0833.7,5.02,000.00,031.9,027.7,000.0,039.3,031.6,34.7,0000.0,0007.81,0003.26,0002.65
2023-08-03 02:12:00,SystemResetWarning,0833.7,4.99,000.00,031.9,028.0,000.0,039.3,031.6,34.9,0000.0,0007.39,0003.25,0002.66
2023-08-03 02:13:00,SystemResetWarning,0833.6,4.99,000.00,032.0,027.6,000.0,039.3,031.7,35.2,0000.0,0007.19,0003.28,0002.70
2023-08-03 02:14:00,SystemResetWarning,0833.7,5.01,000.00,032.2,026.0,000.0,039.3,031.6,35.0,0000.0,0007.69,0003.30,0002.74
2023-08-03 02:15:00,SystemResetWarning,0833.8,4.99,000.00,032.4,025.1,000.0,039.2,031.5,34.4,0000.0,0007.32,0003.33,0002.79
2023-08-03 02:16:00,SystemResetWarning,0833.8,4.99,000.00,032.4,025.1,000.0,039.2,031.3,34.6,0000.0,0007.40,0003.38,0002.82
2023-08-03 02:17:00,SystemResetWarning,0833.7,5.00,000.00,032.3,025.5,000.0,039.3,031.2,35.0,0000.0,0007.47,0003.42,0002.87
2023-08-03 02:18:00,SystemResetWarning,0833.8,5.02,000.00,032.3,025.9,000.0,039.4,031.3,34.7,0000.0,0007.55,0003.47,0002.91
2023-08-03 02:19:00,SystemResetWarning,0833.8,4.96,000.00,032.4,026.4,000.0,039.5,031.4,35.0,0000.0,0007.35,0003.51,0002.96
2023-08-03 02:20:00,SystemResetWarning,0833.8,5.04,000.00,032.5,026.8,000.0,039.6,031.5,35.2,0000.0,0007.39,0003.56,0002.98
2023-08-03 02:21:00,SystemResetWarning,0833.8,4.99,000.00,032.7,027.2,000.0,039.7,031.7,34.9,0000.0,0007.10,0003.56,0003.01
2023-08-03 02:22:00,SystemResetWarning,0833.8,5.00,000.00,032.8,027.5,000.0,039.8,031.8,34.7,0000.0,0006.78,0003.55,0003.03
2023-08-03 02:23:00,SystemResetWarning,0833.8,5.01,000.00,032.9,027.8,000.0,039.9,031.9,34.4,0000.0,0006.75,0003.56,0003.03
2023-08-03 02:24:00,SystemResetWarning,0833.9,5.00,000.00,032.9,028.0,000.0,040.0,031.9,34.3,0000.0,0006.51,0003.55,0003.06
2023-08-03 02:25:00,SystemResetWarning,0834.0,4.99,000.00,032.9,027.9,000.0,040.0,032.0,34.4,0000.0,0005.87,0003.58,0003.08
2023-08-03 02:26:00,SystemResetWarning,0833.9,4.99,000.00,033.0,026.4,000.0,039.9,031.8,34.4,0000.0,0007.08,0003.63,0003.10
2023-08-03 02:27:00,SystemResetWarning,0834.0,5.01,000.00,032.9,025.2,000.0,039.9,031.6,34.4,0000.0,0007.75,0003.62,0003.12
2023-08-03 02:28:00,SystemResetWarning,0834.0,5.00,000.00,032.8,025.1,000.0,039.8,031.3,34.5,0000.0,0007.79,0003.64,0003.13
2023-08-03 02:29:00,SystemResetWarning,0834.0,4.99,000.00,032.5,025.4,000.0,039.9,031.2,34.9,0000.0,0007.77,0003.65,0003.14
2023-08-03 02:30:00,SystemResetWarning,0833.9,5.01,000.00,032.4,025.8,000.0,040.0,031.3,35.1,0000.0,0007.67,0003.64,0003.15
2023-08-03 02:31:00,SystemResetWarning,0834.0,5.01,000.00,032.5,026.3,000.0,040.0,031.5,34.8,0000.0,0007.66,0003.63,0003.16
2023-08-03 02:32:00,SystemResetWarning,0834.0,4.98,000.00,032.6,026.7,000.0,040.0,031.6,34.8,0000.0,0008.46,0003.65,0003.17
2023-08-03 02:33:00,SystemResetWarning,0834.0,5.02,000.00,032.6,027.1,000.0,040.1,031.7,34.9,0000.0,0008.92,0003.65,0003.18
2023-08-03 02:34:00,SystemResetWarning,0834.1,4.99,000.00,032.6,027.4,000.0,040.1,031.7,34.9,0000.0,0009.00,0003.66,0003.18
2023-08-03 02:35:00,SystemResetWarning,0834.1,4.99,000.00,032.6,027.7,000.0,040.1,031.8,34.9,0000.0,0009.05,0003.67,0003.18
2023-08-03 02:36:00,SystemResetWarning,0834.1,4.98,000.00,032.6,027.9,000.0,040.2,031.9,35.0,0000.0,0009.35,0003.66,0003.17
2023-08-03 02:37:00,SystemResetWarning,0834.1,5.05,000.00,032.6,028.1,000.0,040.2,032.0,35.0,0000.0,0008.89,0003.64,0003.16
2023-08-03 02:38:00,SystemResetWarning,0834.2,4.95,000.00,032.8,026.9,000.0,040.1,031.9,34.6,0000.0,0008.46,0003.67,0003.16
2023-08-03 02:39:00,SystemResetWarning,0834.1,5.02,000.00,032.8,025.4,000.0,040.0,031.7,34.5,0000.0,0008.62,0003.69,0003.16
2023-08-03 02:40:00,SystemResetWarning,0834.1,5.01,000.00,032.8,025.0,000.0,039.9,031.5,34.6,0000.0,0009.61,0003.70,0003.14
2023-08-03 02:41:00,SystemResetWarning,0834.1,4.97,000.00,032.6,025.3,000.0,039.9,031.3,35.0,0000.0,0009.95,0003.70,0003.13
2023-08-03 02:42:00,SystemResetWarning,0834.1,5.02,000.00,032.5,025.7,000.0,040.0,031.4,35.2,0000.0,0010.12,0003.71,0003.12
2023-08-03 02:43:00,SystemResetWarning,0834.1,5.01,000.00,032.7,026.2,000.0,040.0,031.6,34.9,0000.0,0009.96,0003.70,0003.11
2023-08-03 02:44:00,SystemResetWarning,0834.3,4.97,000.00,032.8,026.6,000.0,040.1,031.7,34.6,0000.0,0010.32,0003.74,0003.11
2023-08-03 02:45:00,SystemResetWarning,0834.3,5.03,000.00,032.9,027.0,000.0,040.1,031.8,34.5,0000.0,0010.46,0003.77,0003.10
2023-08-03 02:46:00,SystemResetWarning,0834.5,5.00,000.00,032.9,027.3,000.0,040.2,031.8,34.4,0000.0,0010.48,0003.79,0003.10
2023-08-03 02:47:00,SystemResetWarning,0834.4,4.99,000.00,032.9,027.6,000.0,040.2,031.9,34.3,0000.0,0010.18,0003.77,0003.09
2023-08-03 02:48:00,SystemResetWarning,0834.5,5.00,000.00,032.9,027.9,000.0,040.3,031.9,34.4,0000.0,0010.15,0003.76,0003.07
2023-08-03 02:49:00,SystemResetWarning,0834.4,5.00,000.00,032.9,028.1,000.0,040.3,032.0,34.5,0000.0,0010.16,0003.75,0003.06
2023-08-03 02:50:00,SystemResetWarning,0834.4,4.99,000.00,032.9,028.0,000.0,040.4,032.0,34.6,0000.0,0010.06,0003.73,0003.05
2023-08-03 02:51:00,SystemResetWarning,0834.4,4.98,000.00,032.9,026.6,000.0,040.2,031.9,34.5,0000.0,0009.25,0003.70,0003.04
2023-08-03 02:52:00,SystemResetWarning,0834.4,5.02,000.00,032.8,025.3,000.0,040.1,031.6,34.7,0000.0,0009.02,0003.71,0003.04
2023-08-03 02:53:00,SystemResetWarning,0834.4,4.99,000.00,032.6,025.0,000.0,040.1,031.4,35.0,0000.0,0009.98,0003.72,0003.02
2023-08-03 02:54:00,SystemResetWarning,0834.4,5.01,000.00,032.5,025.3,000.0,040.1,031.3,35.5,0000.0,0010.40,0003.73,0003.02
2023-08-03 02:55:00,SystemResetWarning,0834.5,5.01,000.00,032.6,025.8,000.0,040.1,031.5,35.4,0000.0,0010.16,0003.73,0003.02
2023-08-03 02:56:00,SystemResetWarning,0834.8,5.00,000.00,032.8,026.3,000.0,040.1,031.7,34.9,0000.0,0010.94,0003.75,0003.03
2023-08-03 02:57:00,SystemResetWarning,0835.0,4.98,000.00,032.9,026.7,000.0,040.2,031.8,34.5,0000.0,0011.35,0003.78,0003.03
2023-08-03 02:58:00,SystemResetWarning,0834.7,5.01,000.00,033.0,027.1,000.0,040.2,031.9,34.4,0000.0,0011.82,0003.79,0003.04
2023-08-03 02:59:00,SystemResetWarning,0834.9,5.00,000.00,033.1,027.4,000.0,040.3,031.9,34.4,0000.0,0012.15,0003.82,0003.05
